Location: Vulcan
(50.4000°N, 113.2500°W)
Time: 22:05:31
(UTC-07:00)

deb Explorer IX - All Passes

Search period start: 12 November 2019 00:00
Search period end: 22 November 2019 00:00
Orbit: 546 x 1105 km, 38.8° (Epoch: 12 November)

Date Brightness Start Highest point End Pass type
(mag) Time Alt. Az. Time Alt. Az. Time Alt. Az.
12 Nov - 04:32:51 10° SSW 04:35:20 14° SSE 04:37:41 10° SE visible
12 Nov - 06:18:03 10° SW 06:21:17 19° S 06:24:19 10° SE visible
12 Nov - 08:05:03 10° SW 08:07:08 13° SSW 08:09:09 10° SSE daylight
13 Nov - 04:10:38 10° SSW 04:13:26 15° SSE 04:16:03 10° SE visible
13 Nov - 05:55:59 10° SW 05:59:24 19° S 06:02:34 10° SE visible
13 Nov - 07:43:04 10° SW 07:45:15 13° SSW 07:47:21 10° SSE daylight
14 Nov - 03:48:24 10° SSW 03:51:30 16° SSE 03:54:23 10° SE visible
14 Nov - 05:33:54 10° SW 05:37:30 20° S 05:40:49 10° SE visible
14 Nov - 07:21:03 10° SW 07:23:22 14° SSW 07:25:34 10° SSE daylight
15 Nov - 03:26:10 10° SSW 03:29:34 17° SSE 03:32:42 10° SE visible
15 Nov - 05:11:47 10° SW 05:15:36 21° S 05:19:03 10° SE visible
15 Nov - 06:59:01 10° SW 07:01:28 14° SSW 07:03:48 10° SSE visible
16 Nov - 03:03:55 10° SSW 03:07:37 18° SSE 03:10:59 10° SE visible
16 Nov - 04:49:40 10° SW 04:53:41 22° S 04:57:18 10° SE visible
16 Nov - 06:36:55 10° SW 06:39:34 15° SSW 06:42:02 10° SSE visible
17 Nov - 02:41:41 10° SSW 02:45:39 18° SSE 02:49:15 10° ESE night (unlit)
17 Nov - 04:27:32 10° SW 04:31:45 23° S 04:35:32 10° SE visible
17 Nov - 06:14:50 10° SW 06:17:39 15° SSW 06:20:16 10° SSE visible
18 Nov - 02:19:26 10° SSW 02:23:40 19° SSE 02:27:30 10° ESE night (unlit)
18 Nov - 04:05:21 10° SW 04:09:48 23° S 04:13:45 10° SE visible
18 Nov - 05:52:43 10° WSW 05:55:43 16° SSW 05:58:30 10° SSE visible
19 Nov - 01:57:11 10° SSW 02:01:40 20° SSE 02:05:44 10° ESE night (unlit)
19 Nov - 03:43:11 10° SW 03:47:50 24° S 03:51:58 10° SE visible
19 Nov - 05:30:34 10° WSW 05:33:47 16° SSW 05:36:44 10° SSE visible
19 Nov - 23:52:48 10° SSE 23:53:38 10° SSE 23:54:27 10° SE night (unlit)
20 Nov - 01:34:56 10° SSW 01:39:40 21° SSE 01:43:56 10° ESE night (unlit)
20 Nov - 03:21:00 10° WSW 03:25:52 25° S 03:30:11 10° SE visible
20 Nov - 05:08:24 10° WSW 05:11:50 17° SSW 05:14:57 10° SSE visible
20 Nov - 23:29:54 10° SSE 23:31:35 11° SSE 23:33:13 10° SE night (unlit)
21 Nov - 01:12:41 10° SW 01:17:38 22° SSE 01:22:07 10° ESE night (unlit)
21 Nov - 02:58:48 10° WSW 03:03:52 26° S 03:08:22 10° SE visible
21 Nov - 04:46:14 10° WSW 04:49:52 17° SSW 04:53:10 10° SSE visible
21 Nov - 23:07:20 10° SSE 23:09:31 12° SSE 23:11:39 10° SE night (unlit)
